[[{"header":{"parameterUnit":"m.s-1","parameterCategory":1,"la1":30.2991,"la2":30.254,"lo1":-89.0895,"lo2":-89.0444,"dy":0.0017,"dx":0.0017,"nx":28,"ny":28,"refTime":"2025-08-21T09:00:00:Z","depth":0,"parameterNumber":2,"parameterNumberName":"U-component_of_WINDS"},"data":[0,0,0,0,0,0,0,0,0,0,0,0,0,0,0,0,0,0,0,0,0,0,0,0,0,0,0,0,0,0,0,0,0,0,0,0,0,0,0,0,0,0,0,0,0,0,0,0,0,0,0,0,0,0,0,0,0,0,-0.0978,-0.0977,0,-0.0861,-0.086,-0.0859,-0.0799,-0.0799,-0.0799,-0.0799,-0.0677,-0.0673,-0.067,0,0,0,0,0,0,0,0,0,0,0,0,0,-0.1147,-0.1145,-0.0979,-0.0977,-0.0976,-0.0862,-0.086,-0.0858,-0.0799,-0.0799,-0.0799,-0.0799,-0.0678,-0.0674,-0.067,0,0,0,0,0,0,0,0,0,0,0,0,0,-0.1057,-0.1144,-0.0979,-0.0932,-0.0927,-0.0862,-0.086,-0.0858,-0.0799,-0.0799,-0.0799,-0.0799,-0.0679,-0.0674,-0.0669,-0.0641,0,0,-0.0655,-0.0652,0,0,0,0,0,0,0,0,-0.1062,-0.105,-0.0941,-0.0936,-0.0929,-0.0845,-0.0874,-0.0785,-0.0799,-0.0848,-0.0799,-0.0799,-0.0732,-0.0723,-0.0701,-0.0635,-0.0629,-0.0654,-0.0651,-0.0649,-0.0648,0,0,0,0,0,0,0,-0.1068,-0.1055,-0.0932,-0.0939,-0.0932,-0.0916,-0.0903,-0.0857,-0.0792,-0.0844,-0.0839,-0.0826,-0.0729,-0.0706,-0.0698,-0.0628,-0.0654,-0.065,-0.0647,-0.0645,-0.0531,-0.053,0,0,0,0,0,0,-0.1082,-0.1061,-0.0936,-0.0929,-0.0997,-0.0913,-0.0899,-0.0872,-0.0792,-0.078,-0.0826,-0.0824,-0.0714,-0.0704,-0.0693,-0.0654,-0.0649,-0.0645,-0.0642,-0.0531,-0.053,-0.053,0,0,0,0,0,0,-0.1086,-0.1072,-0.094,-0.0993,-0.0975,-0.0911,-0.0881,-0.087,-0.0847,-0.0779,-0.0767,-0.0815,-0.0714,-0.07,-0.0654,-0.0649,-0.0642,-0.0638,-0.0531,-0.0531,-0.053,-0.0575,0,0,0,0,0,0,-0.1091,-0.1074,-0.1063,-0.0994,-0.0973,-0.0904,-0.0881,-0.0868,-0.0839,-0.0834,-0.0765,-0.0753,-0.0713,-0.0662,-0.0649,-0.0642,-0.0634,-0.0531,-0.0531,-0.053,-0.0574,-0.0576,-0.0579,0,0,0,0,0,-0.1098,-0.108,-0.1063,-0.1048,-0.0958,-0.0904,-0.0892,-0.0847,-0.0839,-0.0827,-0.0783,-0.0756,-0.0651,-0.0657,-0.0643,-0.0634,-0.0531,-0.0531,-0.053,-0.0573,-0.0576,-0.0579,0,0,0,0,0,0,-0.1149,-0.107,-0.105,-0.1009,-0.0964,-0.0894,-0.0878,-0.0852,-0.0807,-0.0805,-0.0749,-0.0734,-0.0693,-0.0659,-0.0667,-0.0601,-0.0588,-0.0585,-0.0625,-0.0628,-0.063,-0.0639,-0.063,0,0,0,0,0,-0.1156,-0.112,-0.1052,-0.1022,-0.1001,-0.0944,-0.0918,-0.0887,-0.0837,-0.0818,-0.0771,-0.0723,-0.0679,-0.0652,-0.0608,-0.0568,-0.0552,-0.0555,-0.0558,-0.056,-0.0558,-0.0534,-0.0534,-0.0529,-0.0529,-0.0529,0,0,-0.1169,-0.1121,-0.1102,-0.1031,-0.0993,-0.0955,-0.0928,-0.089,-0.0861,-0.0812,-0.0765,-0.0729,-0.0672,-0.0629,-0.0608,-0.06,-0.0555,-0.056,-0.0562,-0.0558,-0.0533,-0.0534,-0.0534,-0.0529,-0.0529,-0.0529,0,0,-0.1174,-0.1135,-0.1106,-0.1068,-0.101,-0.0972,-0.0965,-0.0899,-0.0873,-0.0826,-0.0788,-0.0753,-0.0679,-0.0639,-0.061,-0.0599,-0.0572,-0.0587,-0.0599,-0.0576,-0.0577,-0.0577,-0.0573,-0.0572,-0.0585,-0.0585,-0.0585,0,-0.1198,-0.1142,-0.1094,-0.1058,-0.1028,-0.0982,-0.0952,-0.0916,-0.0847,-0.0826,-0.0818,-0.0724,-0.0682,-0.0629,-0.0627,-0.0605,-0.0594,-0.0594,-0.0581,-0.058,-0.058,-0.0575,-0.0574,-0.0587,-0.0587,-0.0586,-0.0586,0,-0.1173,-0.1134,-0.1118,-0.1052,-0.102,-0.0987,-0.0934,-0.0906,-0.0878,-0.084,-0.0792,-0.0741,-0.0685,-0.067,-0.0642,-0.0613,-0.0609,-0.0592,-0.0577,-0.0583,-0.0578,-0.0576,-0.059,-0.0589,-0.0588,-0.0588,0,0,-0.1208,-0.1117,-0.1112,-0.1081,-0.1013,-0.0982,-0.0946,-0.0893,-0.087,-0.0823,-0.0791,-0.073,-0.0713,-0.0679,-0.0646,-0.0626,-0.062,-0.061,-0.0608,-0.0613,-0.0584,-0.0598,-0.0597,-0.0602,-0.0601,-0.0601,-0.0589,0,-0.1204,-0.1139,-0.1095,-0.1047,-0.101,-0.0965,-0.0934,-0.0888,-0.0852,-0.0814,-0.0774,-0.0731,-0.0712,-0.0691,-0.067,-0.0626,-0.0613,-0.0626,-0.057,-0.0569,-0.0586,-0.0594,-0.0608,-0.06,-0.0587,-0.0586,-0.0586,0,-0.119,-0.1146,-0.1094,-0.103,-0.1013,-0.0985,-0.0932,-0.0897,-0.0844,-0.0819,-0.0782,-0.0747,-0.0706,-0.0696,-0.0638,-0.0648,-0.0622,-0.0597,-0.0595,-0.0588,-0.0578,-0.0587,-0.0596,-0.0595,-0.0582,-0.0582,-0.0583,0,-0.1221,-0.1148,-0.1107,-0.1082,-0.1006,-0.0988,-0.0955,-0.0902,-0.0873,-0.0826,-0.0806,-0.0755,-0.0727,-0.0688,-0.064,-0.0637,-0.0587,-0.0573,-0.0564,-0.0566,-0.0556,-0.0557,-0.0561,-0.054,-0.054,-0.054,-0.054,0,-0.1221,-0.1191,-0.112,-0.1095,-0.106,-0.1008,-0.0975,-0.0938,-0.0891,-0.0857,-0.0815,-0.0784,-0.0724,-0.0685,-0.0647,-0.0605,-0.0592,-0.057,-0.056,-0.0574,-0.0577,-0.0556,-0.0556,-0.054,-0.054,-0.054,-0.054,0,-0.1249,-0.12,-0.1153,-0.1085,-0.1067,-0.1044,-0.0985,-0.0959,-0.092,-0.0878,-0.0865,-0.0804,-0.0756,-0.0705,-0.0639,-0.0614,-0.0573,-0.0559,-0.0591,-0.0586,-0.058,-0.0582,-0.0571,-0.0567,-0.055,-0.055,-0.055,0,-0.1252,-0.1228,-0.1158,-0.1133,-0.1101,-0.1061,-0.1031,-0.0979,-0.0949,-0.0886,-0.0867,-0.0816,-0.0773,-0.0698,-0.0647,-0.0597,-0.0581,-0.0581,-0.0574,-0.0588,-0.0581,-0.0583,-0.058,-0.0584,-0.0584,-0.0585,-0.0585,0,-0.1263,-0.124,-0.1199,-0.1148,-0.1114,-0.1071,-0.1027,-0.1009,-0.0948,-0.0916,-0.0867,-0.0834,-0.0767,-0.0717,-0.066,-0.0625,-0.0594,-0.0588,-0.0583,-0.0596,-0.0616,-0.0605,-0.0598,-0.0588,-0.0588,-0.0588,-0.0587,-0.0587,-0.1279,-0.1255,-0.1202,-0.1156,-0.1118,-0.1078,-0.1049,-0.1007,-0.0966,-0.0908,-0.0879,-0.083,-0.0776,-0.0697,-0.0663,-0.0623,-0.0614,-0.0607,-0.0605,-0.0604,-0.0608,-0.0623,-0.0612,-0.0612,-0.0612,-0.0612,-0.0612,0,-0.1287,-0.125,-0.1209,-0.1149,-0.1114,-0.1089,-0.1039,-0.101,-0.0968,-0.092,-0.0879,-0.0822,-0.0772,-0.0718,-0.0665,-0.0643,-0.0628,-0.0631,-0.0632,-0.0624,-0.0619,-0.0628,-0.0644,-0.0644,-0.0644,-0.0644,-0.0644,-0.0644,-0.1287,-0.1246,-0.1216,-0.1155,-0.1118,-0.107,-0.1044,-0.1006,-0.0968,-0.0906,-0.0866,-0.083,-0.0779,-0.0722,-0.0676,-0.0661,-0.0643,-0.065,-0.0631,-0.0627,-0.0625,-0.0622,-0.0631,-0.0647,-0.0647,-0.0639,-0.0639,-0.0639]},{"header":{"parameterUnit":"m.s-1","parameterCategory":1,"la1":30.2991,"la2":30.254,"lo1":-89.0895,"lo2":-89.0444,"dy":0.0017,"dx":0.0017,"nx":28,"ny":28,"refTime":"2025-08-21T09:00:00:Z","depth":0,"parameterNumber":3,"parameterNumberName":"V-component_of_WINDS"},"data":[0,0,0,0,0,0,0,0,0,0,0,0,0,0,0,0,0,0,0,0,0,0,0,0,0,0,0,0,0,0,0,0,0,0,0,0,0,0,0,0,0,0,0,0,0,0,0,0,0,0,0,0,0,0,0,0,0,0,-1.4697,-1.4698,0,-1.4748,-1.4748,-1.4749,-1.4753,-1.4753,-1.4752,-1.4752,-1.4803,-1.4804,-1.4806,0,0,0,0,0,0,0,0,0,0,0,0,0,-1.4603,-1.4605,-1.4697,-1.4698,-1.4699,-1.4748,-1.4748,-1.4749,-1.4753,-1.4753,-1.4752,-1.4752,-1.4802,-1.4804,-1.4806,0,0,0,0,0,0,0,0,0,0,0,0,0,-1.4648,-1.4605,-1.4697,-1.4707,-1.4708,-1.4748,-1.4748,-1.4749,-1.4754,-1.4753,-1.4752,-1.4751,-1.4801,-1.4804,-1.4807,-1.484,0,0,-1.4815,-1.4816,0,0,0,0,0,0,0,0,-1.4645,-1.4651,-1.4705,-1.4706,-1.4708,-1.4744,-1.4734,-1.478,-1.4754,-1.4736,-1.4752,-1.4751,-1.4783,-1.4788,-1.4799,-1.4842,-1.4844,-1.4815,-1.4817,-1.4818,-1.4819,0,0,0,0,0,0,0,-1.4642,-1.4649,-1.4717,-1.4705,-1.4707,-1.4708,-1.4713,-1.4743,-1.4764,-1.4738,-1.4738,-1.4744,-1.4784,-1.4796,-1.48,-1.4845,-1.4815,-1.4818,-1.4819,-1.4821,-1.4917,-1.4918,0,0,0,0,0,0,-1.4637,-1.4646,-1.4716,-1.4719,-1.4674,-1.471,-1.4716,-1.4733,-1.4763,-1.4767,-1.4745,-1.4744,-1.4792,-1.4797,-1.4802,-1.4842,-1.4818,-1.4821,-1.4822,-1.4916,-1.4917,-1.4918,0,0,0,0,0,0,-1.4635,-1.4644,-1.4714,-1.4683,-1.4692,-1.4713,-1.4731,-1.4734,-1.4746,-1.4769,-1.4772,-1.4753,-1.4791,-1.4798,-1.483,-1.4844,-1.4822,-1.4825,-1.4915,-1.4917,-1.4918,-1.4923,0,0,0,0,0,0,-1.4633,-1.4643,-1.4656,-1.4683,-1.4693,-1.4742,-1.4732,-1.4736,-1.4751,-1.4751,-1.4778,-1.4781,-1.4791,-1.4826,-1.4833,-1.4847,-1.4827,-1.4914,-1.4916,-1.4918,-1.4922,-1.4925,-1.4927,0,0,0,0,0,-1.4629,-1.4656,-1.4657,-1.4665,-1.471,-1.4742,-1.4748,-1.4759,-1.4752,-1.4765,-1.478,-1.4781,-1.4841,-1.4829,-1.4837,-1.4853,-1.4913,-1.4915,-1.4917,-1.4921,-1.4924,-1.4927,0,0,0,0,0,0,-1.463,-1.4659,-1.4661,-1.4697,-1.4717,-1.4743,-1.476,-1.4763,-1.4785,-1.4784,-1.4796,-1.4802,-1.4834,-1.4847,-1.4833,-1.4886,-1.4877,-1.488,-1.4876,-1.488,-1.4882,-1.4878,-1.4829,0,0,0,0,0,-1.4634,-1.4658,-1.4682,-1.4711,-1.4722,-1.4739,-1.4753,-1.476,-1.4782,-1.479,-1.4807,-1.4827,-1.4851,-1.4866,-1.4889,-1.4924,-1.4929,-1.4938,-1.4941,-1.4943,-1.4946,-1.4964,-1.4968,-1.4925,-1.4925,-1.4925,0,0,-1.4643,-1.4662,-1.4676,-1.4712,-1.4728,-1.4752,-1.4746,-1.4772,-1.479,-1.4794,-1.4825,-1.4838,-1.4862,-1.4895,-1.4911,-1.4906,-1.4959,-1.4945,-1.4947,-1.4949,-1.4966,-1.497,-1.4974,-1.4926,-1.4926,-1.4926,0,0,-1.4671,-1.4689,-1.4714,-1.4731,-1.4756,-1.4767,-1.4773,-1.4799,-1.4808,-1.484,-1.4843,-1.4864,-1.4905,-1.4921,-1.4934,-1.4968,-1.4969,-1.4975,-1.4988,-1.5006,-1.5009,-1.5012,-1.5024,-1.5028,-1.4978,-1.4978,-1.4978,0,-1.4679,-1.4716,-1.4727,-1.4753,-1.4768,-1.4773,-1.4799,-1.4814,-1.4845,-1.4855,-1.4851,-1.4901,-1.4917,-1.4954,-1.4962,-1.4973,-1.498,-1.4972,-1.5008,-1.5011,-1.5014,-1.5025,-1.5029,-1.4979,-1.4979,-1.4979,-1.4979,0,-1.4724,-1.4749,-1.4767,-1.4796,-1.4814,-1.4839,-1.4854,-1.487,-1.4875,-1.4887,-1.4918,-1.4938,-1.4965,-1.4974,-1.4979,-1.5011,-1.5008,-1.5005,-1.4996,-1.5018,-1.5029,-1.5033,-1.4979,-1.4979,-1.4979,-1.4979,0,0,-1.4754,-1.4789,-1.4796,-1.4809,-1.4837,-1.4856,-1.4881,-1.4908,-1.4921,-1.4942,-1.4963,-1.4997,-1.4994,-1.501,-1.5017,-1.5033,-1.5057,-1.5028,-1.5029,-1.5032,-1.5092,-1.5094,-1.5099,-1.5058,-1.5059,-1.506,-1.509,0,-1.4785,-1.483,-1.4841,-1.488,-1.4903,-1.4908,-1.493,-1.4949,-1.496,-1.4981,-1.4993,-1.5017,-1.5012,-1.5021,-1.5037,-1.5051,-1.5069,-1.5049,-1.5077,-1.5078,-1.507,-1.5104,-1.5106,-1.5134,-1.5094,-1.5095,-1.5096,0,-1.4827,-1.4849,-1.489,-1.4914,-1.4924,-1.4944,-1.4968,-1.4988,-1.5009,-1.5016,-1.5033,-1.5039,-1.5064,-1.5054,-1.5089,-1.5075,-1.5087,-1.5096,-1.5097,-1.51,-1.5088,-1.5107,-1.5143,-1.5147,-1.5102,-1.5102,-1.5101,0,-1.4844,-1.4884,-1.4913,-1.4925,-1.4953,-1.4967,-1.4979,-1.5,-1.5015,-1.5036,-1.5046,-1.507,-1.5083,-1.5101,-1.5112,-1.5104,-1.5146,-1.5137,-1.5152,-1.5152,-1.516,-1.516,-1.5198,-1.5169,-1.5169,-1.5169,-1.5169,0,-1.4877,-1.4902,-1.4921,-1.4939,-1.4967,-1.4979,-1.5005,-1.5018,-1.5036,-1.5056,-1.5062,-1.5081,-1.5095,-1.5115,-1.5124,-1.5152,-1.5158,-1.5163,-1.5165,-1.5163,-1.5162,-1.517,-1.5169,-1.517,-1.517,-1.517,-1.517,0,-1.49,-1.4914,-1.4947,-1.4971,-1.4978,-1.4997,-1.5018,-1.5035,-1.5047,-1.5072,-1.5079,-1.5096,-1.5121,-1.5134,-1.5164,-1.517,-1.5201,-1.5202,-1.5193,-1.5194,-1.5208,-1.5206,-1.5253,-1.526,-1.5227,-1.5227,-1.5228,0,-1.492,-1.4939,-1.4966,-1.498,-1.4992,-1.5015,-1.503,-1.5042,-1.5058,-1.5083,-1.5097,-1.5122,-1.5142,-1.518,-1.5196,-1.5219,-1.522,-1.5235,-1.5224,-1.522,-1.522,-1.5218,-1.522,-1.5237,-1.5237,-1.5238,-1.5238,0,-1.4954,-1.496,-1.4981,-1.5005,-1.5023,-1.5042,-1.5062,-1.5073,-1.5088,-1.5105,-1.513,-1.5145,-1.5176,-1.52,-1.5225,-1.5237,-1.524,-1.5241,-1.5246,-1.5243,-1.5237,-1.5239,-1.5198,-1.524,-1.524,-1.524,-1.5239,-1.5239,-1.4975,-1.4992,-1.5013,-1.5037,-1.5053,-1.507,-1.5088,-1.5101,-1.5122,-1.5148,-1.5154,-1.518,-1.52,-1.5233,-1.5246,-1.5266,-1.5263,-1.527,-1.5272,-1.5273,-1.5273,-1.5234,-1.5271,-1.5271,-1.5271,-1.5271,-1.5271,0,-1.5008,-1.5022,-1.5044,-1.507,-1.5089,-1.509,-1.5111,-1.5126,-1.5149,-1.5168,-1.5188,-1.5216,-1.5239,-1.5256,-1.528,-1.5293,-1.5294,-1.5298,-1.5297,-1.53,-1.5275,-1.5268,-1.5296,-1.5296,-1.5296,-1.5296,-1.5296,-1.5296,-1.5028,-1.5056,-1.5064,-1.51,-1.5114,-1.5139,-1.5151,-1.5167,-1.5182,-1.5213,-1.5233,-1.5244,-1.5261,-1.5286,-1.5307,-1.5312,-1.532,-1.5323,-1.5328,-1.5304,-1.5302,-1.5299,-1.5293,-1.5325,-1.5325,-1.5351,-1.5351,-1.5351]}]]